Regional Weather Roundup
Issued by NWS

Home | Current Version | Previous Version | Text Only | Print | Product List | Glossary On
Versions: 1 2 3 4 5 6 7 8 9 10 11 12 13 14 15 16 17 18 19 20 21 22 23 24 25 26 27 28 29 30 31 32 33 34 35 36 37 38 39 40 41 42 43 44 45 46 47 48 49 50
000
ASUS44 KOUN 292210
RWROK

WEATHER ROUNDUP FOR OKLAHOMA
NATIONAL WEATHER SERVICE NORMAN OK
500 PM CDT WED MAR 29 2017

NOTE: "FAIR" INDICATES FEW OR NO CLOUDS BELOW 12,000 FEET WITH NO
      SIGNIFICANT WEATHER AND/OR OBSTRUCTIONS TO VISIBILITY.

OKZ001>007-009>012-014-015-017-292300-
NORTHWEST OKLAHOMA AND THE PANHANDLE

CITY           SKY/WX    TMP DP  RH WIND       PRES   REMARKS
GAGE           LGT RAIN  48  42  80 NW24G35   29.81
GUYMON         LGT RAIN  46  43  89 N24G31    29.90R
ENID/WOODRING  CLOUDY    55  48  76 MISG      29.67R
$$

OKZ016-021>023-033>039-044-045-292300-
SOUTHWEST OKLAHOMA

CITY           SKY/WX    TMP DP  RH WIND       PRES   REMARKS
LAWTON/REGL    CLOUDY    59  47  64 NW10      29.79R
LAWTON/FT SILL CLOUDY    59  48  67 NW17      29.77R
FREDERICK      CLOUDY    57  47  69 NW15      29.79R
CLINTON        CLOUDY    52  42  69 NW22G35   29.81R
HOBART         CLOUDY    56  44  64 N21       29.81R
ALTUS AFB      CLOUDY    57  43  58 NW22      29.82R
$$

OKZ018>020-024>031-292300-
CENTRAL OKLAHOMA

CITY           SKY/WX    TMP DP  RH WIND       PRES   REMARKS
OKLAHOMA CITY  PTSUNNY   58  46  64 W16G26    29.74R
OKC/WILEY POST PTSUNNY   58  47  66 W15G26    29.73R
OKC/TINKER AFB PTSUNNY   60  46  59 W20       29.71S
STILLWATER     MOSUNNY   60  47  61 SW24G31   29.68R
GUTHRIE        CLOUDY    58  47  66 W17G28    29.71R
$$

OKZ008-013-054>072-292300-
NORTHEAST OKLAHOMA

CITY           SKY/WX    TMP DP  RH WIND       PRES   REMARKS
TULSA          CLOUDY    67  56  67 W12       29.63F
TULSA/JONES    LGT RAIN  66  57  72 W8G22     29.65S
PONCA CITY     CLOUDY    58  46  64 SW18G28   29.64R
BARTLESVILLE   MOSUNNY   66  52  60 SW14G29   29.65F
MUSKOGEE       MOSUNNY   78  50  37 S20G33    29.64F
$$

OKZ032-040>043-046>053-073>077-292300-
SOUTH CENTRAL/SOUTHEAST OKLAHOMA

CITY           SKY/WX    TMP DP  RH WIND       PRES   REMARKS
ARDMORE/DWNTWN PTSUNNY   68  52  56 NW6       29.71R
MCALESTER      MOSUNNY   76  50  40 SW18G24   29.66S
$$




USA.gov is the U.S. government's official web portal to all federal, state and local government web resources and services.